DECAYED

STARLINK-4329, 53087 (Decayed)

Orbit data source: Space-Track

STARLINK-4329, 53087 was a payload satellite owned by SpaceX/Seattle (US) in LEO that was launched on Mon, 11 Jul 2022 UTC via an FALCON 9 launch vehicle from the Air Force Western Test Range (AFWTR). Payload-class satellites include a variety of spacecraft equipped with specific instruments for various scientific and technological missions. These include communications satellites like Starlink; space stations such as the ISS; scientific satellites like the Hubble; Earth observation satellites from companies like Planet Labs, Umbra, and HawkEye 360; GPS; miniature CubeSats for education and research; and military/defense satellites.

Not visible in the next 10 days
Identifier
53087, 2022-077AW
Orbit
Decayed
Country
Flag of USUS
Related business
Manufacturer
SpaceX/Seattle
Mission
Decayed Commercial Communications
Bus & Motor
STARLINK, Unknown motor
Mass
297 kg wet, ~275 kg dry
Launch date (UTC)
2022-07-11 (4 years ago)
Launch vehicle
FALCON 9
Launch site
Air Force Western Test Range (AFWTR)
Object type
Payload
Rocket body
Debris
Shape & HBR
Box + 1 Pan, 10.1 m
Radar Cross Section
13.562 m², Large (>1 m²)

Expand to show TLE details & history
Last TLE update: 10 months ago

TLE from 10 months ago
0 STARLINK-4329
1 53087U 22077AW  25244.16040980  .07783537  27397-5  21397-3 0  9994
2 53087  97.6392  77.8155 0009239 258.1052 101.9214 16.44910878173311
Epoch: 2025-09-01T03:50Z
TLE epoch observation values (Epoch: 2025-09-01T03:50:59.406Z)
Latitude
0.00001°
Longitude
39.49799°
Altitude
157.274 km
Speed
7.811 km/s
True Right ascension
05h 11m 15s
True Declination
0° 00' 00"
Sunlit
Object was in daylight at epoch
Visualization orbit readout
Latitude
Unknown
Longitude
Unknown
Altitude
Unknown
Speed
Unknown
Apparent Right ascension
Unknown
Apparent Declination
Unknown
Sunlit
N/A
Visualization observer readout
Local Sidereal Time
21:34:32
Azimuth
Unknown
Elevation
Unknown
Doppler factor
Unknown
Orbital elements
Apogee altitude
155.615 km
Perigee altitude
143.553 km
Semi-major axis
6,527.721 km
Eccentricity
0.00092
Inclination
97.6392°
RAAN
77.8155°
Arg. of periapsis
258.1052°
True anomaly
102.02496°
Mean anomaly
101.9214°
Eccentric anomaly
101.97318°
Mean motion
4.11529 °/min
Orbital period
87.48 mins
BSTAR
0.00021397
Loading maneuver chart data...
Computing Atmospheric mass density...
Loading historical data...
Loading historical data...
Loading historical data...
Loading historical data...
Loading historical data...
Loading historical data...
Loading historical data...

Documentation

Showing up to 5 results
|